User: anonymous   Login
Location: Frydek-Mistek
(49.6830°N, 18.3330°E)
Time: 08:02:49
(UTC+02:00)
Language:

Courier 1B Rocket - Orbit

View from above orbital plane
View from above orbital plane
View from above satellite
View from above satellite

Ground track
Ground track

The orbit data is extracted from the following two-line orbital elements,

1    59U 60013B   16143.70460337 +.00000091 +00000-0 +76602-5 0  9995
2    59 028.2489 295.0939 0189249 047.7957 313.8488 13.52939008745100
Epoch (UTC): 22 May 2016 16:54:37
Eccentricity: 0.0189249
inclination: 28.2489°
perigee height: 920 km
apogee height: 1202 km
right ascension of ascending node: 295.0939°
argument of perigee: 47.7957°
revolutions per day: 13.52939008
mean anomaly at epoch: 313.8488°
orbit number at epoch: 74510

The dashed part of the orbit path shows where the satellite is in the earth's shadow,  

DLR